FW0827 Weather Reports


Display with metric or nautical units.
time (UTC)temp
F
wind
direction
speed
MPH
gust
MPH
rain 1hr
in
rain 24hr
in
rain mn
in
humidity
%
barometer
mb
20260510094956 48 312 0.0 0.0 0.00 0.00 0.00 99 1028.5
20260510094451 49 313 0.0 0.0 0.00 0.00 0.00 99 1028.0
20260510094204 49 286 0.0 0.0 0.00 0.40 0.00 99 1011.5
20260510093947 48 286 0.0 0.0 0.00 0.00 0.00 99 1028.1
20260510093703 48 286 0.0 0.0 0.00 0.40 0.00 99 1011.7
20260510093442 48 286 0.0 0.0 0.00 0.00 0.00 99 1028.3
20260510093204 48 286 0.0 0.0 0.00 0.40 0.00 99 1011.4
20260510092939 48 286 0.0 0.0 0.00 0.00 0.00 99 1028.1
20260510092436 48 286 0.0 0.0 0.00 0.00 0.00 99 1028.0
20260510092203 48 286 0.0 0.0 0.00 0.40 0.00 99 1011.4
20260510091931 48 286 0.0 0.0 0.00 0.00 0.00 99 1028.2
20260510091703 48 286 0.0 0.0 0.00 0.40 0.00 99 1011.2
20260510091428 48 286 0.0 0.0 0.00 0.00 0.00 99 1028.1
20260510090924 49 286 0.0 0.0 0.00 0.00 0.00 99 1027.8
20260510090421 49 286 0.0 0.0 0.00 0.00 0.00 99 1027.9
20260510085917 48 286 0.0 0.0 0.00 0.00 0.00 99 1027.9
20260510085704 49 286 0.0 0.0 0.00 0.40 0.00 99 1011.3
20260510085412 49 285 0.0 0.0 0.00 0.00 0.00 99 1028.0
20260510085204 48 297 0.0 0.0 0.00 0.40 0.00 99 1011.1
20260510084907 48 297 0.0 0.0 0.00 0.00 0.00 99 1028.2
20260510084703 48 305 0.0 0.0 0.00 0.40 0.00 99 1011.2
20260510084406 48 275 0.0 0.0 0.00 0.00 0.00 99 1028.0
20260510084204 48 275 0.0 0.0 0.00 0.40 0.00 99 1011.4
20260510083902 48 274 0.0 0.0 0.00 0.00 0.00 99 1028.1
20260510083704 48 301 0.0 0.0 0.00 0.40 0.00 99 1011.8
20260510083358 48 276 0.0 0.0 0.00 0.00 0.00 99 1028.2
20260510083203 48 289 0.0 0.0 0.00 0.40 0.00 99 1011.6
20260510082854 48 308 0.0 0.0 0.00 0.00 0.00 99 1028.1
20260510082703 48 308 0.0 0.0 0.00 0.40 0.00 99 1011.7
20260510082351 48 341 0.0 0.0 0.00 0.00 0.00 99 1028.1
20260510082205 48 342 0.0 0.0 0.00 0.40 0.00 99 1011.5
20260510081849 48 342 0.0 0.0 0.00 0.00 0.00 99 1027.9
20260510081702 48 341 0.0 0.0 0.00 0.40 0.00 99 1011.3
20260510081345 48 342 0.0 0.0 0.00 0.00 0.00 99 1028.3
20260510080842 48 344 0.0 0.0 0.00 0.00 0.00 99 1028.1
20260510080337 48 260 0.0 0.0 0.00 0.00 0.00 99 1028.1
20260510080203 48 337 0.0 0.0 0.00 0.40 0.00 99 1011.5
20260510075834 47 342 0.0 0.0 0.00 0.00 0.00 99 1028.5
20260510075703 47 286 0.0 1.0 0.00 0.40 0.00 99 1011.4
20260510075331 47 272 0.0 0.0 0.00 0.00 0.00 99 1028.3
20260510074822 46 266 0.0 0.0 0.00 0.00 0.00 99 1028.0
20260510074703 46 327 0.0 1.0 0.00 0.40 0.00 99 1011.3
20260510074319 46 294 0.0 0.0 0.00 0.00 0.00 99 1027.7
20260510074203 46 279 0.0 0.0 0.00 0.40 0.00 99 1010.8
20260510073816 46 279 0.0 0.0 0.00 0.00 0.00 99 1027.3
20260510073703 46 280 0.0 0.0 0.00 0.40 0.00 99 1010.7
20260510073312 46 280 0.0 0.0 0.00 0.00 0.00 99 1027.4
20260510073204 46 280 0.0 0.0 0.00 0.40 0.00 99 1011.0
20260510072808 46 280 0.0 0.0 0.00 0.00 0.00 99 1027.2
20260510072703 46 280 0.0 0.0 0.00 0.40 0.00 99 1010.8
20260510072306 46 280 0.0 0.0 0.00 0.00 0.00 99 1027.2
20260510071801 47 280 0.0 0.0 0.00 0.00 0.00 99 1027.4
20260510071703 47 279 0.0 0.0 0.00 0.40 0.00 99 1010.7
20260510071257 47 279 0.0 0.0 0.00 0.00 0.00 99 1027.2
20260510071203 46 279 0.0 0.0 0.00 0.40 0.00 99 1010.7
20260510070756 47 279 0.0 0.0 0.00 0.00 0.00 99 1027.4
20260510070252 48 319 0.0 0.0 0.00 0.00 0.00 99 1027.3
20260510070203 48 319 0.0 0.0 0.00 0.40 0.00 99 1010.6
20260510065746 47 319 0.0 0.0 0.00 0.00 0.00 99 1027.4
20260510065703 46 319 0.0 0.0 0.00 0.40 0.00 99 1010.7
20260510065243 46 319 0.0 0.0 0.00 0.00 0.00 99 1027.3
20260510065204 45 318 0.0 0.0 0.00 0.40 0.00 99 1010.7
20260510064739 45 319 0.0 0.0 0.00 0.00 0.00 99 1027.4
20260510064238 45 314 0.0 0.0 0.00 0.00 0.00 99 1027.3
20260510063733 45 313 0.0 0.0 0.00 0.00 0.00 99 1027.5
20260510063704 45 313 0.0 0.0 0.00 0.40 0.00 99 1010.6
20260510063230 45 313 0.0 0.0 0.00 0.00 0.00 99 1027.3
20260510063203 45 313 0.0 0.0 0.00 0.40 0.00 99 1010.5
20260510062727 46 313 0.0 0.0 0.00 0.00 0.00 99 1027.2
20260510062703 46 313 0.0 0.0 0.00 0.40 0.00 99 1010.5
20260510062223 46 313 0.0 0.0 0.00 0.00 0.00 99 1027.3
20260510062203 46 313 0.0 0.0 0.00 0.40 0.00 99 1010.5
20260510061718 45 313 0.0 0.0 0.00 0.00 0.00 99 1026.9
20260510061703 45 313 0.0 0.0 0.00 0.40 0.00 99 1010.4
20260510061216 45 313 0.0 0.0 0.00 0.00 0.00 99 1027.0
20260510060712 46 313 0.0 0.0 0.00 0.00 0.00 99 1026.8
20260510060704 46 313 0.0 0.0 0.00 0.40 0.00 99 1010.2
20260510060208 46 313 0.0 0.0 0.00 0.00 0.00 99 1027.0
20260510060203 46 313 0.0 0.0 0.00 0.40 0.00 99 1010.3
20260510055705 46 313 0.0 0.0 0.00 0.00 0.00 99 1027.1
20260510055703 46 313 0.0 0.0 0.00 0.40 0.00 99 1010.4
20260510055204 46 313 0.0 0.0 0.00 0.40 0.00 99 1010.4
20260510054703 46 313 0.0 0.0 0.00 0.40 0.00 99 1010.8
20260510054658 46 313 0.0 0.0 0.00 0.00 0.00 99 1027.3
20260510054154 46 313 0.0 0.0 0.00 0.00 0.00 99 1027.3
20260510053703 46 313 0.0 0.0 0.00 0.40 0.00 99 1010.5
20260510053653 46 313 0.0 0.0 0.00 0.00 0.00 99 1027.1
20260510053203 46 313 0.0 0.0 0.00 0.40 0.00 99 1010.7
20260510053151 46 313 0.0 0.0 0.00 0.00 0.00 99 1027.4
20260510052704 47 313 0.0 0.0 0.00 0.40 0.00 99 1010.6
20260510052646 47 313 0.0 0.0 0.00 0.00 0.00 99 1027.5
20260510052143 46 313 0.0 0.0 0.00 0.00 0.00 99 1027.2
20260510051703 47 313 0.0 0.0 0.00 0.40 0.00 99 1010.7
20260510051638 47 313 0.0 0.0 0.00 0.00 0.00 99 1027.7
20260510051204 47 313 0.0 0.0 0.00 0.40 0.00 99 1010.6
20260510051135 47 313 0.0 0.0 0.00 0.00 0.00 99 1027.3
20260510050704 46 313 0.0 0.0 0.00 0.40 0.00 99 1010.8
20260510050632 46 313 0.0 0.0 0.00 0.00 0.00 99 1027.5
20260510050203 47 313 0.0 0.0 0.00 0.40 0.00 99 1010.9
20260510050130 47 313 0.0 0.0 0.00 0.00 0.00 99 1027.5
20260510045626 47 313 0.0 0.0 0.00 0.00 0.00 99 1027.3
20260510045204 47 313 0.0 0.0 0.20 0.40 0.00 99 1010.8
20260510045123 47 313 0.0 0.0 0.00 0.00 0.00 99 1027.4
20260510044704 47 313 0.0 0.0 0.20 0.40 0.00 99 1010.8
20260510044619 48 313 0.0 0.0 0.00 0.00 0.00 99 1027.5
20260510044203 47 313 0.0 0.0 0.20 0.40 0.00 99 1010.9
20260510044117 47 313 0.0 0.0 0.00 0.00 0.00 99 1027.5
20260510043703 47 313 0.0 0.0 0.20 0.40 0.00 99 1010.8
20260510043613 47 313 0.0 0.0 0.00 0.00 0.00 99 1027.4
20260510043205 48 313 0.0 0.0 0.20 0.40 0.00 99 1011.0
20260510043109 48 313 0.0 0.0 0.00 0.00 0.00 99 1027.6
20260510042703 48 313 0.0 0.0 0.20 0.40 0.00 99 1010.9
20260510042608 48 313 0.0 0.0 0.00 0.00 0.00 99 1027.6
20260510042203 48 313 0.0 0.0 0.20 0.40 0.00 99 1011.0
20260510042102 48 313 0.0 0.0 0.00 0.00 0.00 99 1027.6
20260510041559 48 313 0.0 0.0 0.00 0.00 0.00 99 1027.8
20260510041203 49 313 0.0 0.0 0.20 0.40 0.00 99 1011.1
20260510041057 49 313 0.0 0.0 0.00 0.00 0.00 99 1027.9
20260510040708 48 313 0.0 0.0 0.20 0.40 0.00 99 1011.0
20260510040553 48 313 0.0 0.0 0.00 0.00 0.00 99 1027.6
20260510040203 48 313 0.0 0.0 0.20 0.40 0.00 99 1011.0
20260510040049 48 313 0.0 0.0 0.00 0.20 0.20 99 1027.6
20260510035704 48 313 0.0 0.0 0.00 0.20 0.20 99 1011.0
20260510035546 48 313 0.0 0.0 0.00 0.20 0.20 99 1027.6
20260510035203 49 313 0.0 0.0 0.00 0.20 0.20 99 1011.1
20260510035045 49 313 0.0 0.0 0.00 0.20 0.20 99 1027.7
20260510034703 48 313 0.0 0.0 0.00 0.20 0.20 99 1011.1
20260510034544 48 313 0.0 0.0 0.00 0.20 0.20 99 1027.7
20260510034203 49 313 0.0 0.0 0.00 0.20 0.20 99 1011.0
20260510034041 49 313 0.0 0.0 0.00 0.20 0.20 99 1027.6
20260510033706 49 313 0.0 0.0 0.00 0.20 0.20 99 1010.9
20260510033536 49 313 0.0 0.0 0.00 0.20 0.20 99 1027.5
20260510033205 49 313 0.0 0.0 0.00 0.20 0.20 99 1011.0
20260510033035 49 313 0.0 0.0 0.00 0.20 0.20 99 1027.7
20260510032705 49 313 0.0 0.0 0.00 0.20 0.20 99 1010.9
20260510032531 49 313 0.0 0.0 0.00 0.20 0.20 99 1027.3
20260510032026 49 313 0.0 0.0 0.00 0.20 0.20 99 1027.4
20260510031703 50 313 0.0 0.0 0.00 0.20 0.20 99 1011.0
20260510031521 50 313 0.0 0.0 0.00 0.20 0.20 99 1027.5
20260510031206 49 313 0.0 0.0 0.00 0.20 0.20 99 1010.9
20260510031017 49 313 0.0 0.0 0.00 0.20 0.20 99 1027.6
20260510030703 50 313 0.0 0.0 0.00 0.20 0.20 99 1010.8
20260510030513 50 313 0.0 0.0 0.00 0.20 0.20 99 1027.4
20260510030203 50 313 0.0 0.0 0.00 0.20 0.20 99 1010.6
20260510030011 50 313 0.0 0.0 0.00 0.20 0.20 99 1027.2
20260510025703 50 313 0.0 0.0 0.00 0.20 0.20 99 1010.6
20260510025507 50 313 0.0 0.0 0.00 0.20 0.20 99 1027.2
20260510025204 50 313 0.0 0.0 0.00 0.20 0.20 99 1010.6
20260510025005 50 313 0.0 0.0 0.00 0.20 0.20 99 1027.2
20260510024704 50 313 0.0 0.0 0.00 0.20 0.20 99 1010.6
20260510024502 50 312 0.0 0.0 0.00 0.20 0.20 99 1027.2
20260510024203 50 313 0.0 0.0 0.00 0.20 0.20 99 1010.6
20260510023958 50 313 0.0 0.0 0.00 0.20 0.20 99 1027.4
20260510023705 50 313 0.0 0.0 0.00 0.20 0.20 99 1010.6
20260510023449 50 313 0.0 0.0 0.00 0.20 0.20 99 1027.2
20260510023204 50 313 0.0 0.0 0.00 0.20 0.20 99 1010.7
20260510022946 50 312 0.0 0.0 0.00 0.20 0.20 99 1027.3
20260510022703 50 312 0.0 0.0 0.00 0.20 0.20 99 1010.6
20260510022445 50 312 0.0 0.0 0.00 0.20 0.20 99 1027.3
20260510022203 50 312 0.0 0.0 0.00 0.20 0.20 99 1010.8
20260510021944 51 312 0.0 0.0 0.00 0.20 0.20 99 1027.3
20260510021703 51 313 0.0 0.0 0.00 0.20 0.20 99 1010.6
20260510021442 51 313 0.0 0.0 0.00 0.20 0.20 99 1027.3
20260510021203 51 312 0.0 0.0 0.00 0.20 0.20 99 1010.5
20260510020938 51 312 0.0 0.0 0.00 0.20 0.20 99 1027.3
20260510020433 51 312 0.0 0.0 0.00 0.20 0.20 99 1027.3
20260510020204 51 313 0.0 0.0 0.00 0.20 0.20 99 1010.7
20260510015929 51 313 0.0 0.0 0.00 0.20 0.20 99 1027.2
20260510015704 51 313 0.0 0.0 0.00 0.20 0.20 99 1010.5
20260510015425 52 312 0.0 0.0 0.00 0.20 0.20 99 1027.1
20260510015203 51 313 0.0 0.0 0.00 0.20 0.20 99 1010.7
20260510014920 51 313 0.0 0.0 0.00 0.20 0.20 99 1027.2
20260510014703 51 312 0.0 0.0 0.00 0.20 0.20 99 1010.4
20260510014418 51 313 0.0 0.0 0.00 0.20 0.20 99 1027.2
20260510013914 52 312 0.0 0.0 0.00 0.20 0.20 99 1027.1
20260510013409 52 313 0.0 0.0 0.00 0.20 0.20 99 1026.8
20260510013204 52 313 0.0 0.0 0.00 0.20 0.20 99 1010.3
20260510012905 52 313 0.0 0.0 0.00 0.20 0.20 99 1026.8
20260510012400 52 312 0.0 0.0 0.00 0.20 0.20 99 1027.2
20260510012204 52 312 0.0 0.0 0.00 0.20 0.20 99 1010.3
20260510011854 53 313 0.0 0.0 0.00 0.20 0.20 99 1027.1
20260510011704 52 313 0.0 0.0 0.00 0.20 0.20 99 1010.2
20260510011349 52 313 0.0 0.0 0.00 0.20 0.20 99 1026.8
20260510011203 53 313 0.0 0.0 0.00 0.20 0.20 99 1010.4
20260510010846 53 313 0.0 0.0 0.00 0.20 0.20 99 1026.6
20260510010705 53 313 0.0 0.0 0.00 0.20 0.20 99 1010.0
20260510010344 53 290 0.0 0.0 0.00 0.20 0.20 99 1026.8
20260510010205 53 289 0.0 0.0 0.00 0.20 0.20 99 1010.0
20260510005840 53 289 0.0 0.0 0.00 0.20 0.20 99 1026.9
20260510005704 53 289 0.0 0.0 0.00 0.20 0.20 99 1010.1
20260510005336 53 289 0.0 0.0 0.00 0.20 0.20 99 1026.9
20260510005204 53 289 0.0 0.0 0.00 0.20 0.20 99 1010.1
20260510004834 53 289 0.0 0.0 0.00 0.20 0.20 99 1026.9
20260510004704 53 289 0.0 0.0 0.00 0.20 0.20 99 1010.1
20260510004331 54 289 0.0 0.0 0.00 0.20 0.20 99 1026.6
20260510004204 54 289 0.0 0.0 0.00 0.20 0.20 99 1009.9
20260510003829 54 289 0.0 0.0 0.00 0.20 0.20 99 1026.7
20260510003705 54 289 0.0 0.0 0.00 0.20 0.20 99 1009.8
20260510003326 54 289 0.0 0.0 0.00 0.20 0.20 99 1026.5
20260510003204 54 289 0.0 0.0 0.00 0.20 0.20 99 1009.8
20260510002824 55 289 0.0 0.0 0.00 0.20 0.20 99 1026.5
20260510002703 55 289 0.0 0.0 0.00 0.20 0.20 99 1009.8
20260510002322 55 288 0.0 0.0 0.00 0.20 0.20 99 1026.4
20260510001818 55 290 0.0 0.0 0.00 0.20 0.20 99 1026.5
20260510001317 55 292 0.0 0.0 0.00 0.20 0.20 99 1026.4
20260510001204 55 275 0.0 0.0 0.00 0.20 0.20 99 1009.8
20260510000812 55 314 0.0 0.0 0.00 0.20 0.20 99 1026.6
20260510000705 55 312 0.0 0.0 0.00 0.20 0.20 99 1009.8
20260510000311 55 345 0.0 0.0 0.00 0.20 0.20 99 1026.2
20260510000204 56 338 0.0 0.0 0.00 0.20 0.20 99 1009.8
20260509235807 56 337 0.0 0.0 0.00 0.20 0.20 99 1026.3
20260509235705 56 39 0.0 0.0 0.00 0.20 0.20 99 1009.7
20260509235306 56 51 0.0 0.0 0.00 0.20 0.20 99 1026.1
20260509234759 56 352 0.0 0.0 0.00 0.20 0.20 99 1026.5
20260509234704 56 263 0.0 1.0 0.00 0.20 0.20 99 1009.7
20260509234256 56 120 0.0 0.0 0.00 0.20 0.20 99 1026.4
20260509234204 56 335 0.0 1.0 0.00 0.20 0.20 99 1009.5
20260509233754 57 279 0.0 0.0 0.00 0.20 0.20 98 1026.5
20260509233704 56 291 0.0 1.0 0.00 0.20 0.20 98 1009.9
20260509233251 57 298 0.0 0.0 0.00 0.20 0.20 98 1026.4
20260509232747 57 16 0.0 0.0 0.00 0.20 0.20 98 1026.5
20260509232704 57 347 0.0 1.0 0.00 0.20 0.20 98 1009.7
20260509232245 57 333 0.0 0.0 0.00 0.20 0.20 98 1026.2
20260509232203 57 332 0.0 0.0 0.00 0.20 0.20 98 1009.7
20260509231741 57 308 0.0 0.0 0.00 0.20 0.20 98 1026.5
20260509231238 57 33 0.0 0.0 0.00 0.20 0.20 97 1026.2
20260509231203 57 34 0.0 1.0 0.00 0.20 0.20 97 1010.0
20260509230735 57 50 0.0 2.0 0.00 0.20 0.20 97 1026.5
20260509230703 57 57 0.0 3.0 0.00 0.20 0.20 97 1009.9
20260509230232 57 79 0.0 0.0 0.00 0.20 0.20 96 1026.4
20260509230203 57 79 0.0 0.0 0.00 0.20 0.20 96 1009.8
20260509225727 57 79 0.0 0.0 0.00 0.20 0.20 96 1026.3
20260509225703 57 79 0.0 5.0 0.00 0.20 0.20 96 1009.9
20260509225224 58 253 0.0 5.0 0.00 0.20 0.20 95 1026.3
20260509225203 58 215 1.0 5.0 0.00 0.20 0.20 95 1009.7
20260509224720 58 46 0.0 0.0 0.00 0.20 0.20 94 1026.1
20260509224704 58 45 0.0 1.0 0.00 0.20 0.20 94 1009.7
20260509224216 58 37 1.0 2.0 0.00 0.20 0.20 93 1026.4
20260509224203 58 53 0.0 7.0 0.00 0.20 0.20 93 1009.7
20260509223713 59 76 5.0 7.0 0.00 0.20 0.20 92 1026.4
20260509223704 59 337 1.0 7.0 0.00 0.20 0.20 92 1009.7
20260509223211 59 127 0.0 0.0 0.00 0.20 0.20 92 1026.3
20260509223203 59 230 0.0 0.0 0.00 0.20 0.20 92 1009.7
20260509222707 59 265 0.0 0.0 0.00 0.20 0.20 91 1026.3
20260509222703 59 299 0.0 0.0 0.00 0.20 0.20 91 1009.7
20260509222204 59 307 0.0 0.0 0.00 0.20 0.20 91 1009.8
20260509221704 59 307 0.0 3.0 0.00 0.20 0.20 92 1009.8
20260509221659 59 307 0.0 0.0 0.00 0.20 0.20 92 1026.2
20260509221203 59 307 0.0 1.0 0.00 0.20 0.20 92 1009.7
20260509221155 59 307 0.0 0.0 0.00 0.20 0.20 92 1026.2
20260509220703 59 307 0.0 1.0 0.00 0.20 0.20 93 1009.7
20260509220651 59 307 0.0 0.0 0.00 0.20 0.20 93 1026.3
20260509220203 58 140 0.0 0.0 0.00 0.20 0.20 92 1009.6
20260509220148 58 307 0.0 0.0 0.00 0.20 0.20 92 1026.3
20260509215704 59 134 0.0 0.0 0.00 0.20 0.20 92 1009.8
20260509215643 59 134 0.0 0.0 0.00 0.20 0.20 93 1026.2
20260509215203 59 259 0.0 0.0 0.00 0.20 0.20 92 1009.7
20260509215140 59 258 0.0 0.0 0.00 0.20 0.20 91 1026.5
20260509214704 59 30 0.0 0.0 0.00 0.20 0.20 91 1009.6
20260509214637 59 351 0.0 0.0 0.00 0.20 0.20 91 1026.2
20260509214134 59 37 0.0 0.0 0.00 0.20 0.20 92 1026.3
20260509213703 58 37 0.0 0.0 0.00 0.20 0.20 92 1009.6
20260509213631 58 37 0.0 0.0 0.00 0.20 0.20 92 1026.3
20260509213203 58 36 0.0 1.0 0.00 0.20 0.20 94 1009.5
20260509213127 58 35 0.0 0.0 0.00 0.20 0.20 94 1026.2
20260509212703 58 61 0.0 1.0 0.00 0.20 0.20 95 1009.5
20260509212625 58 69 0.0 2.0 0.00 0.20 0.20 95 1026.2
20260509212203 58 325 0.0 0.0 0.00 0.20 0.20 96 1009.7
20260509212122 58 329 0.0 0.0 0.00 0.20 0.20 96 1026.4
20260509211703 58 315 0.0 0.0 0.00 0.20 0.20 96 1009.7
20260509211617 58 314 0.0 0.0 0.00 0.20 0.20 96 1026.4
20260509211204 58 349 0.0 0.0 0.00 0.20 0.20 96 1009.8
20260509211114 58 349 0.0 0.0 0.00 0.20 0.20 96 1026.5
20260509210703 57 349 0.0 0.0 0.00 0.20 0.20 95 1010.0
20260509210611 57 349 0.0 0.0 0.00 0.20 0.20 95 1026.7
20260509210203 58 350 0.0 0.0 0.00 0.20 0.20 95 1010.0
20260509210108 58 350 0.0 0.0 0.00 0.20 0.20 95 1026.7
20260509205703 58 351 0.0 0.0 0.00 0.20 0.20 94 1009.9
20260509205602 58 351 0.0 0.0 0.00 0.20 0.20 94 1026.6
20260509205203 58 311 0.0 0.0 0.00 0.20 0.20 94 1009.8
20260509205057 58 311 0.0 0.0 0.00 0.20 0.20 94 1026.5
20260509204703 58 311 0.0 0.0 0.00 0.20 0.20 94 1009.8
20260509204553 58 311 0.0 0.0 0.00 0.20 0.20 94 1026.5
20260509204204 57 314 0.0 0.0 0.00 0.20 0.20 95 1010.0
20260509204050 57 314 0.0 0.0 0.00 0.20 0.20 95 1026.7
20260509203546 58 350 0.0 2.0 0.00 0.20 0.20 96 1026.5
20260509203204 57 299 0.0 0.0 0.00 0.20 0.20 97 1009.9
20260509203044 57 298 0.0 0.0 0.00 0.20 0.20 97 1026.6
20260509202703 57 326 0.0 0.0 0.00 0.20 0.20 98 1009.9
20260509202538 57 336 0.0 0.0 0.00 0.20 0.20 98 1026.6
20260509202204 58 322 0.0 3.0 0.00 0.20 0.20 99 1010.0
20260509202034 58 320 0.0 0.0 0.00 0.20 0.20 99 1026.7
20260509201704 57 337 0.0 3.0 0.00 0.20 0.20 99 1010.1
20260509201529 57 350 0.0 2.0 0.00 0.20 0.20 99 1026.8
20260509201203 56 334 0.0 1.0 0.00 0.20 0.20 99 1010.1
20260509201027 56 329 0.0 0.0 0.00 0.20 0.20 99 1026.7
20260509200703 56 353 1.0 1.0 0.01 0.20 0.20 99 1009.9
20260509200521 56 21 0.0 0.0 0.00 0.20 0.20 99 1026.6
20260509200019 55 26 0.0 0.0 0.00 0.20 0.20 99 1026.6
20260509195703 55 8 1.0 1.0 0.03 0.20 0.20 99 1010.0
20260509195514 55 47 1.0 2.0 0.00 0.20 0.20 99 1026.7
20260509195204 55 13 0.0 1.0 0.03 0.20 0.20 99 1009.9
20260509195014 55 16 0.0 0.0 0.00 0.20 0.20 99 1026.7
20260509194703 55 8 0.0 0.0 0.03 0.20 0.20 99 1009.9
20260509194509 55 356 0.0 0.0 0.00 0.20 0.20 99 1026.8
20260509194205 55 337 0.0 0.0 0.03 0.20 0.20 99 1010.1
20260509194007 55 333 0.0 0.0 0.00 0.20 0.20 99 1026.7
20260509193704 55 337 0.0 0.0 0.04 0.20 0.20 99 1010.1
20260509193506 55 337 0.0 0.0 0.00 0.20 0.20 99 1026.8
20260509193204 55 353 0.0 0.0 0.05 0.20 0.20 99 1010.4
20260509193004 55 353 0.0 0.0 0.00 0.20 0.20 99 1027.0
20260509192703 55 353 0.0 0.0 0.05 0.20 0.20 99 1010.5
20260509192459 55 353 0.0 0.0 0.00 0.20 0.20 99 1027.2
20260509192205 54 333 0.0 0.0 0.05 0.20 0.20 99 1010.4
20260509191955 54 333 0.0 0.0 0.05 0.20 0.20 99 1027.5
20260509191704 54 333 0.0 0.0 0.05 0.20 0.20 99 1010.7
20260509191450 54 333 0.0 0.0 0.12 0.20 0.20 99 1027.5
20260509191203 54 333 0.0 0.0 0.05 0.20 0.20 99 1010.6
20260509190946 54 333 0.0 0.0 0.12 0.19 0.19 99 1027.4
20260509190704 54 317 0.0 0.0 0.04 0.19 0.19 99 1010.9
20260509190444 54 317 0.0 0.0 0.05 0.18 0.18 99 1027.6
20260509190204 54 300 0.0 1.0 0.02 0.17 0.17 99 1010.9
20260509185941 54 332 0.0 0.0 0.00 0.17 0.17 99 1027.5
20260509185704 54 337 0.0 0.0 0.02 0.17 0.17 99 1011.1
20260509185438 54 337 0.0 0.0 0.00 0.17 0.17 99 1027.8
20260509185203 54 343 0.0 0.0 0.02 0.17 0.17 99 1011.0
20260509184934 54 347 0.0 0.0 0.07 0.17 0.17 99 1027.6
20260509184704 54 344 0.0 1.0 0.02 0.17 0.17 99 1011.2
20260509184432 54 329 0.0 2.0 0.07 0.17 0.17 99 1028.0
20260509184203 54 332 0.0 0.0 0.02 0.17 0.17 99 1011.3
20260509183928 54 343 0.0 0.0 0.07 0.16 0.16 99 1028.1
20260509183422 54 332 0.0 0.0 0.07 0.16 0.16 99 1028.0
20260509183204 54 333 0.0 0.0 0.01 0.15 0.15 99 1011.3
20260509182919 54 321 0.0 0.0 0.00 0.15 0.15 99 1028.0
20260509182416 55 321 0.0 0.0 0.00 0.15 0.15 99 1028.1
20260509182205 55 294 0.0 0.0 0.01 0.15 0.15 99 1011.4
20260509181914 55 322 0.0 0.0 0.00 0.15 0.15 99 1027.9
20260509181704 55 305 0.0 0.0 0.01 0.15 0.15 99 1011.5
20260509181411 55 305 0.0 0.0 0.00 0.15 0.15 99 1028.3
20260509181203 55 318 0.0 0.0 0.02 0.15 0.15 99 1011.4
20260509180908 55 311 0.0 0.0 0.00 0.15 0.15 99 1028.0
20260509180704 55 295 0.0 0.0 0.02 0.15 0.15 99 1011.5
20260509180403 55 312 0.0 0.0 0.00 0.15 0.15 99 1028.0
20260509175901 56 317 0.0 0.0 0.00 0.15 0.15 99 1028.1
20260509175703 56 317 0.0 0.0 0.03 0.15 0.15 99 1011.4
20260509175357 55 317 0.0 0.0 0.00 0.15 0.15 99 1028.4
20260509175204 55 316 0.0 0.0 0.04 0.15 0.15 99 1011.4
20260509174853 56 317 0.0 0.0 0.00 0.15 0.15 99 1028.3
20260509174705 56 317 0.0 0.0 0.04 0.15 0.15 99 1011.7
20260509174344 56 316 0.0 0.0 0.00 0.15 0.15 99 1028.3
20260509173840 56 323 0.0 0.0 0.05 0.15 0.15 99 1028.2
20260509173705 56 273 0.0 0.0 0.04 0.15 0.15 99 1011.4
20260509173335 55 271 0.0 0.0 0.00 0.14 0.14 99 1028.1
20260509173204 55 271 0.0 1.0 0.03 0.14 0.14 99 1011.4
20260509172832 55 279 0.0 0.0 0.00 0.14 0.14 99 1028.3
20260509172328 55 279 0.0 0.0 0.07 0.14 0.14 99 1028.4
20260509172204 55 284 0.0 0.0 0.03 0.14 0.14 99 1011.6
20260509171824 55 284 0.0 0.0 0.07 0.14 0.14 99 1028.2
20260509171703 55 284 0.0 0.0 0.03 0.14 0.14 99 1011.5
20260509171320 55 284 0.0 0.0 0.05 0.13 0.13 99 1028.3
20260509171204 55 284 0.0 0.0 0.03 0.13 0.13 98 1011.5
20260509170817 56 284 0.0 0.0 0.05 0.13 0.13 99 1028.2
20260509170705 56 285 0.0 0.0 0.03 0.13 0.13 98 1011.6
20260509170313 55 285 0.0 0.0 0.07 0.12 0.12 98 1028.3
20260509170204 55 285 0.0 0.0 0.03 0.12 0.12 98 1011.5
20260509165813 55 285 0.0 0.0 0.07 0.12 0.12 98 1028.1
20260509165704 55 285 0.0 0.0 0.04 0.12 0.12 98 1011.5
20260509165307 55 285 0.0 0.0 0.00 0.11 0.11 98 1028.1
20260509165205 56 285 0.0 0.0 0.04 0.11 0.11 98 1011.4
20260509164803 56 286 0.0 0.0 0.00 0.11 0.11 98 1028.3
20260509164704 55 286 0.0 1.0 0.04 0.11 0.11 98 1011.6
20260509164259 55 285 0.0 2.0 0.00 0.11 0.11 98 1027.9
20260509164204 55 279 0.0 0.0 0.05 0.11 0.11 98 1011.4
20260509163756 55 278 0.0 0.0 0.00 0.11 0.11 97 1027.7
20260509163704 56 253 0.0 0.0 0.06 0.11 0.11 98 1011.0
20260509163252 56 265 0.0 0.0 0.00 0.11 0.11 98 1027.7
20260509163203 56 265 0.0 0.0 0.07 0.11 0.11 98 1011.2
20260509162751 56 265 0.0 0.0 0.00 0.11 0.11 98 1028.0
20260509162245 56 286 0.0 0.0 0.00 0.11 0.11 98 1028.1
20260509162204 56 284 0.0 0.0 0.08 0.11 0.11 98 1011.3
20260509161741 57 284 0.0 0.0 0.05 0.11 0.11 98 1028.2
20260509161705 56 284 0.0 0.0 0.09 0.11 0.11 98 1011.6
20260509161232 57 284 0.0 0.0 0.07 0.10 0.10 98 1028.3
20260509161203 56 288 0.0 1.0 0.08 0.10 0.10 98 1011.6
20260509160727 56 281 0.0 0.0 0.12 0.10 0.10 98 1028.2
20260509160703 56 278 0.0 0.0 0.08 0.10 0.10 97 1011.5
20260509160224 57 265 0.0 0.0 0.12 0.09 0.09 97 1028.6
20260509160205 56 264 0.0 0.0 0.08 0.09 0.09 97 1011.8
20260509155719 57 277 0.0 0.0 0.07 0.08 0.08 96 1028.5
20260509155704 56 280 0.0 0.0 0.07 0.08 0.08 96 1011.6
20260509155216 57 312 0.0 0.0 0.05 0.07 0.07 96 1028.3
20260509155203 57 312 0.0 0.0 0.06 0.07 0.07 96 1011.6
20260509154712 57 273 0.0 0.0 0.12 0.07 0.07 95 1028.7
20260509154705 57 273 0.0 0.0 0.07 0.07 0.07 95 1011.9
20260509154209 57 266 0.0 0.0 0.12 0.06 0.06 95 1028.7
20260509154205 57 267 0.0 0.0 0.06 0.06 0.06 95 1012.1
20260509153706 57 267 0.0 0.0 0.12 0.05 0.05 95 1029.0
20260509153204 58 274 0.0 1.0 0.04 0.04 0.04 94 1012.3
20260509153202 58 274 0.0 0.0 0.07 0.04 0.04 94 1029.1
20260509152704 58 266 0.0 0.0 0.03 0.03 0.03 94 1012.2
20260509152658 58 266 0.0 0.0 0.07 0.03 0.03 94 1028.8
20260509152205 57 266 0.0 1.0 0.03 0.03 0.03 93 1012.1
20260509152155 57 266 0.0 0.0 0.07 0.03 0.03 93 1029.0
20260509151652 58 263 0.0 0.0 0.00 0.02 0.02 93 1028.9
20260509151204 58 263 0.0 5.0 0.02 0.02 0.02 92 1012.2
20260509151149 58 264 0.0 0.0 0.05 0.02 0.02 93 1028.9
20260509150705 59 268 0.0 0.0 0.02 0.02 0.02 92 1012.1
20260509150647 59 267 0.0 0.0 0.05 0.02 0.02 92 1028.8
20260509150145 59 271 0.0 0.0 0.00 0.01 0.01 92 1028.6
20260509145705 59 271 0.0 0.0 0.01 0.01 0.01 92 1012.0
20260509145641 59 271 0.0 0.0 0.07 0.01 0.01 92 1028.7
20260509145136 59 254 0.0 0.0 0.07 0.01 0.01 91 1028.9
20260509144704 59 254 0.0 0.0 0.00 0.00 0.00 91 1012.0
20260509144633 59 254 0.0 0.0 0.00 0.00 0.00 91 1028.7
20260509144203 59 254 0.0 0.0 0.00 0.00 0.00 90 1011.8
20260509144130 59 254 0.0 0.0 0.00 0.00 0.00 90 1028.5
20260509143704 59 254 0.0 0.0 0.00 0.00 0.00 89 1011.7
20260509143627 59 254 0.0 0.0 0.00 0.00 0.00 89 1028.3
20260509143204 59 129 0.0 0.0 0.00 0.00 0.00 88 1011.8
20260509143125 59 129 0.0 0.0 0.00 0.00 0.00 88 1028.4
20260509142704 59 294 0.0 0.0 0.00 0.00 0.00 88 1011.9
20260509142620 59 294 0.0 0.0 0.00 0.00 0.00 88 1028.5
20260509142202 59 294 0.0 0.0 0.00 0.00 0.00 88 1011.8
20260509142117 59 294 0.0 0.0 0.00 0.00 0.00 88 1028.5
20260509141703 59 303 0.0 0.0 0.00 0.00 0.00 86 1011.8
20260509141613 59 300 0.0 0.0 0.00 0.00 0.00 86 1028.5
20260509141203 59 254 0.0 0.0 0.00 0.00 0.00 86 1011.7
20260509141109 59 254 0.0 0.0 0.00 0.00 0.00 86 1028.4
20260509140606 59 254 0.0 0.0 0.00 0.00 0.00 86 1028.3
20260509140204 58 254 0.0 0.0 0.00 0.00 0.00 86 1011.7
20260509140104 58 254 0.0 0.0 0.00 0.00 0.00 86 1028.4
20260509135601 58 239 0.0 0.0 0.00 0.00 0.00 87 1028.3
20260509135203 58 211 0.0 0.0 0.00 0.00 0.00 86 1011.3
20260509135059 58 208 0.0 0.0 0.00 0.00 0.00 86 1028.0
20260509134703 58 291 0.0 1.0 0.00 0.00 0.00 86 1011.6
20260509134555 58 295 0.0 0.0 0.00 0.00 0.00 86 1028.4
20260509134053 58 271 0.0 0.0 0.00 0.00 0.00 86 1028.1
20260509133704 58 271 0.0 0.0 0.00 0.00 0.00 86 1011.7
20260509133550 59 271 0.0 0.0 0.00 0.00 0.00 86 1028.5
20260509133203 58 269 0.0 0.0 0.00 0.00 0.00 87 1011.7
20260509133048 58 269 0.0 0.0 0.00 0.00 0.00 87 1028.4
20260509132703 57 269 0.0 0.0 0.00 0.00 0.00 87 1011.5
20260509132546 57 269 0.0 0.0 0.00 0.00 0.00 87 1028.2
20260509132204 57 269 0.0 0.0 0.00 0.00 0.00 87 1011.5
20260509132044 57 269 0.0 0.0 0.00 0.00 0.00 87 1028.2
20260509131703 56 259 0.0 0.0 0.00 0.00 0.00 88 1011.5
20260509131539 56 271 0.0 0.0 0.00 0.00 0.00 88 1028.2
20260509131037 56 270 0.0 0.0 0.00 0.00 0.00 89 1028.4
20260509130703 56 270 0.0 0.0 0.00 0.00 0.00 88 1011.3
20260509130532 56 270 0.0 0.0 0.00 0.00 0.00 88 1028.0
20260509130203 56 269 0.0 0.0 0.00 0.00 0.00 88 1011.1
20260509130029 56 310 0.0 0.0 0.00 0.00 0.00 88 1028.1
20260509125703 56 63 0.0 0.0 0.00 0.00 0.00 88 1011.4
20260509125525 56 64 0.0 0.0 0.00 0.00 0.00 88 1028.1
20260509125203 56 267 0.0 0.0 0.00 0.00 0.00 88 1011.4
20260509125022 56 264 0.0 0.0 0.00 0.00 0.00 88 1028.2
20260509124703 55 263 0.0 0.0 0.00 0.00 0.00 88 1011.5
20260509124513 56 253 0.0 0.0 0.00 0.00 0.00 89 1028.3
20260509124203 55 306 0.0 0.0 0.00 0.00 0.00 90 1011.7
20260509124010 55 309 0.0 0.0 0.00 0.00 0.00 90 1028.5
20260509123508 55 309 0.0 0.0 0.00 0.00 0.00 91 1028.3
20260509123203 55 301 0.0 0.0 0.00 0.00 0.00 91 1011.6
20260509123004 54 301 0.0 0.0 0.00 0.00 0.00 91 1028.4
20260509122703 54 310 0.0 0.0 0.00 0.00 0.00 91 1011.5
20260509122501 54 310 0.0 0.0 0.00 0.00 0.00 91 1028.4
20260509122204 54 310 0.0 0.0 0.00 0.00 0.00 92 1011.4
20260509121957 54 310 0.0 0.0 0.00 0.00 0.00 92 1028.1
20260509121704 54 313 0.0 0.0 0.00 0.00 0.00 93 1011.6
20260509121448 54 320 0.0 0.0 0.00 0.00 0.00 93 1028.4
20260509121205 53 320 0.0 0.0 0.00 0.00 0.00 93 1011.6
20260509120946 53 320 0.0 0.0 0.00 0.00 0.00 93 1028.1
20260509120703 53 329 0.0 0.0 0.00 0.00 0.00 93 1011.7
20260509120444 52 302 0.0 0.0 0.00 0.00 0.00 93 1028.3
20260509120203 52 300 0.0 1.0 0.00 0.00 0.00 94 1011.7
20260509115942 52 300 0.0 0.0 0.00 0.00 0.00 94 1028.4
20260509115439 52 311 0.0 0.0 0.00 0.00 0.00 94 1028.4
20260509114936 52 311 0.0 0.0 0.00 0.00 0.00 94 1028.3
20260509114704 52 311 0.0 0.0 0.00 0.00 0.00 94 1011.4
20260509114435 52 311 0.0 0.0 0.00 0.00 0.00 94 1028.3
20260509114203 51 318 0.0 0.0 0.00 0.00 0.00 94 1011.5
20260509113934 51 313 0.0 0.0 0.00 0.00 0.00 94 1028.2
20260509113703 51 291 0.0 0.0 0.00 0.00 0.00 94 1011.4
20260509113431 51 149 0.0 0.0 0.00 0.00 0.00 94 1028.1
20260509113205 51 308 0.0 0.0 0.00 0.00 0.00 94 1011.3
20260509112927 51 282 0.0 0.0 0.00 0.00 0.00 94 1028.1
20260509112703 51 282 0.0 0.0 0.00 0.00 0.00 94 1011.5
20260509112425 51 282 0.0 0.0 0.00 0.00 0.00 94 1028.2
20260509112203 51 282 0.0 0.0 0.00 0.00 0.00 94 1011.4
20260509111921 51 282 0.0 0.0 0.00 0.00 0.00 94 1028.1
20260509111703 51 282 0.0 0.0 0.00 0.00 0.00 94 1011.4
20260509111418 51 281 0.0 0.0 0.00 0.00 0.00 94 1028.0
20260509111204 51 281 0.0 3.0 0.00 0.00 0.00 93 1011.5
20260509110915 51 281 0.0 3.0 0.00 0.00 0.00 93 1028.1
20260509110703 51 234 0.0 0.0 0.00 0.00 0.00 94 1011.5
20260509110411 51 310 0.0 0.0 0.00 0.00 0.00 94 1028.1
20260509110203 51 307 0.0 0.0 0.00 0.00 0.00 94 1011.5
20260509105909 50 129 0.0 0.0 0.00 0.00 0.00 94 1028.2
20260509105704 50 129 0.0 0.0 0.00 0.00 0.00 94 1011.4
20260509105408 50 129 0.0 0.0 0.00 0.00 0.00 94 1028.0
20260509105204 50 130 0.0 1.0 0.00 0.00 0.00 94 1011.3
20260509104904 50 324 0.0 2.0 0.00 0.00 0.00 94 1027.9
20260509104704 50 312 0.0 0.0 0.00 0.00 0.00 94 1011.1
20260509104401 50 317 0.0 0.0 0.00 0.00 0.00 94 1027.8
20260509104203 50 316 0.0 1.0 0.00 0.00 0.00 94 1011.2
20260509103859 50 309 0.0 0.0 0.00 0.00 0.00 94 1027.8
20260509103704 50 299 0.0 0.0 0.00 0.00 0.00 94 1011.2
20260509103355 50 280 0.0 0.0 0.00 0.00 0.00 94 1028.0
20260509103203 50 280 0.0 0.0 0.00 0.00 0.00 94 1011.4
20260509102854 50 280 0.0 0.0 0.00 0.00 0.00 93 1027.9
20260509102704 50 279 0.0 0.0 0.00 0.00 0.00 93 1011.2
20260509102351 50 279 0.0 0.0 0.00 0.00 0.00 93 1028.0
20260509102206 50 314 0.0 0.0 0.00 0.00 0.00 93 1011.3
20260509101847 50 315 0.0 0.0 0.00 0.00 0.00 93 1028.0
20260509101343 50 315 0.0 0.0 0.00 0.00 0.00 93 1027.9
20260509101205 50 315 0.0 0.0 0.00 0.00 0.00 93 1011.1
20260509100841 50 315 0.0 0.0 0.00 0.00 0.00 93 1027.7
20260509100704 50 305 0.0 0.0 0.00 0.00 0.00 93 1011.2
20260509100338 50 305 0.0 0.0 0.00 0.00 0.00 93 1027.8
20260509100205 50 305 0.0 0.0 0.00 0.00 0.00 93 1011.0
20260509095835 50 305 0.0 0.0 0.00 0.00 0.00 93 1027.5
20260509095703 50 305 0.0 0.0 0.00 0.00 0.00 93 1011.0
20260509095332 50 305 0.0 0.0 0.00 0.00 0.00 92 1027.7
20260509095203 50 305 0.0 0.0 0.00 0.00 0.00 92 1011.0